Theta_e
331 328 326 327 326 327 329 329 328 327 326 326 326 326 326 326 333 345 350 346 340 340 341 341 340 341 342 342 342 343 343 343 347 349 343 341 343 347 353 355 353 353
334 333 331 330 328 327 329 330 328 326 325 325 325 325 326 326 327 336 345 346 340 338 340 341 341 340 341 343 342 342 342 340 343 343 341 341 341 343 349 355 356 354
338 337 336 334 332 331 331 331 330 328 326 325 326 327 330 332 332 331 337 341 338 335 335 339 341 341 340 342 342 341 341 340 340 341 341 340 340 340 344 351 355 356
342 342 340 339 336 335 333 334 334 331 329 327 326 329 334 340 342 339 337 340 338 334 332 334 338 341 341 340 341 341 340 339 339 340 340 339 339 340 341 346 352 355
343 343 343 342 341 339 336 336 337 335 332 331 328 327 332 340 346 346 343 341 339 336 334 332 334 337 339 340 340 341 340 339 338 338 339 339 340 340 341 343 346 350
342 343 344 343 342 342 339 337 339 338 335 334 332 331 332 336 344 348 347 345 340 337 336 334 332 333 336 337 338 339 340 339 339 338 337 338 339 340 342 344 343 344
343 343 344 344 342 343 342 339 339 339 337 334 335 337 336 336 339 344 348 347 342 337 335 335 334 333 334 335 336 337 338 339 341 342 339 338 339 340 342 346 347 344
343 343 344 343 343 343 342 340 338 338 337 336 338 340 340 341 340 341 345 347 344 341 337 337 337 335 335 336 335 335 336 336 339 343 340 337 338 340 340 344 346 343
344 344 343 343 342 341 339 338 337 336 336 337 341 343 342 343 344 342 342 344 346 344 340 339 341 339 338 338 336 334 334 334 335 337 338 337 336 337 339 341 342 341
345 345 343 342 342 340 338 338 338 336 335 336 340 345 345 344 345 343 341 342 344 346 344 342 342 341 340 340 340 337 333 333 333 334 336 336 335 336 337 338 339 339
346 346 344 341 342 340 338 340 344 343 340 338 339 344 348 347 346 345 343 341 340 343 344 344 343 342 341 341 342 340 336 333 332 334 335 335 334 334 334 334 335 336
346 346 346 343 342 343 341 341 347 351 348 344 341 343 348 351 350 347 345 341 337 336 339 340 340 342 341 339 340 341 339 335 334 334 333 334 333 331 331 331 331 334
346 346 347 346 345 346 346 346 350 354 354 350 346 345 348 353 353 350 347 345 339 335 335 336 337 340 340 337 336 339 339 337 337 336 334 332 331 331 330 330 330 330
347 347 348 349 349 349 350 352 352 354 355 354 352 349 349 352 354 353 351 349 345 339 336 335 335 336 337 335 334 335 337 338 339 338 336 333 330 330 330 331 335 338
350 350 350 350 351 351 351 354 355 353 354 355 355 353 351 350 353 355 354 352 350 344 339 337 336 335 335 334 332 332 335 336 337 337 336 334 331 330 330 331 337 346
353 352 352 351 351 351 350 353 355 354 354 355 355 354 353 351 350 354 356 355 353 349 344 340 337 335 333 332 332 331 331 334 335 334 334 333 332 331 331 331 334 340
356 354 354 352 351 349 349 351 353 355 355 355 356 355 354 352 350 351 355 357 355 352 347 341 337 335 334 332 332 331 331 331 332 332 332 332 332 332 331 331 334 335
357 356 356 354 352 350 349 349 352 355 355 354 354 355 355 354 351 351 353 356 358 356 352 345 337 334 334 333 332 331 331 331 331 331 331 330 331 332 330 329 331 334
358 357 356 355 353 352 350 349 350 354 355 354 354 355 355 355 354 352 351 353 356 358 357 353 345 338 335 333 332 332 331 331 331 331 331 331 330 329 330 330 329 329
359 358 357 356 354 353 353 352 350 351 353 354 353 354 355 355 355 354 353 352 354 357 357 356 353 350 343 337 333 331 331 332 332 331 332 332 331 330 331 332 331 329
360 360 358 357 356 355 355 353 351 350 351 353 354 354 354 355 355 356 355 352 352 354 356 357 357 356 354 348 341 335 331 332 332 332 333 334 335 338 338 338 337 335
362 360 359 359 358 356 356 355 353 351 350 352 354 355 355 356 355 356 356 354 352 351 353 357 358 357 358 356 350 343 338 337 336 334 333 334 339 345 348 348 347 345
363 361 361 360 359 358 355 354 354 353 351 352 354 355 357 358 357 356 357 357 355 352 350 352 355 357 358 357 354 351 349 347 343 338 335 333 335 340 346 350 352 351
364 363 362 361 360 359 356 355 355 354 352 351 352 355 360 361 360 358 357 357 357 355 352 349 350 353 355 355 354 354 354 354 350 344 339 335 334 334 337 341 344 344
365 364 364 363 361 360 359 358 357 356 354 352 351 354 360 362 361 361 360 359 358 358 356 352 350 350 351 351 350 349 352 353 353 350 345 340 338 337 336 335 336 335
366 365 365 364 363 362 362 362 360 359 357 354 351 352 356 360 360 362 364 362 360 359 359 356 353 350 347 346 345 345 346 349 351 351 347 343 341 340 339 337 336 334
Wind_Speed
37 37 36 35 34 32 31 30 29 27 25 24 23 21 19 18 16 15 14 14 13 12 13 13 12 11 11 11 10 10 11 9 7 7 6 5 5 4 4 4 4 4
37 37 37 36 35 34 33 32 30 29 27 25 24 22 21 19 18 17 18 17 16 13 13 14 13 13 12 12 11 11 11 10 8 8 7 6 6 6 6 6 5 5
37 37 37 36 36 36 34 33 31 31 29 27 25 23 21 20 19 18 20 20 19 16 14 14 14 13 14 13 12 12 11 11 9 9 9 8 7 7 7 6 6 7
38 37 36 36 36 36 35 34 33 32 31 29 27 26 22 20 19 19 20 21 21 19 16 16 15 14 15 14 14 13 12 11 10 10 10 9 8 8 8 8 8 8
38 37 36 35 34 35 35 35 34 33 32 30 29 28 26 22 20 20 20 21 22 21 19 18 17 16 16 16 15 15 14 13 12 11 11 11 10 9 9 9 9 9
39 38 36 35 34 34 35 35 35 34 33 32 30 28 27 26 24 22 22 22 22 21 21 20 19 18 17 17 17 16 15 15 14 13 13 12 11 11 10 10 10 10
41 39 37 35 34 34 34 34 34 34 33 33 31 29 28 27 27 26 25 24 23 22 22 22 21 20 19 18 18 17 17 16 15 14 14 13 13 13 12 11 11 11
41 40 38 36 35 34 35 34 34 34 34 33 31 30 28 27 27 29 28 26 24 23 22 22 22 21 20 20 20 19 19 18 17 16 16 14 13 14 14 13 13 13
41 41 39 38 36 36 35 35 34 34 34 33 31 30 29 28 28 29 30 28 27 25 23 23 23 23 22 21 21 20 20 20 19 18 18 17 15 14 14 14 14 14
42 41 40 39 38 37 36 35 34 34 34 34 32 30 30 30 29 29 29 29 29 27 25 24 25 25 24 23 22 21 21 20 20 19 19 18 18 17 16 16 16 16
44 42 41 40 39 38 37 35 34 33 33 34 34 32 30 30 31 30 30 30 30 29 27 26 26 26 26 25 24 23 23 21 20 20 20 19 19 19 18 18 18 18
45 43 42 42 41 39 38 36 34 33 33 33 34 33 31 30 31 32 31 31 30 30 29 29 28 28 28 27 25 25 24 24 22 22 22 21 21 21 21 20 20 19
45 44 43 42 41 40 38 37 35 33 32 33 33 33 32 30 30 32 32 32 31 31 30 30 30 30 29 29 27 26 26 25 24 23 22 22 22 21 21 20 20 20
45 44 43 42 41 39 38 36 36 34 33 32 32 33 33 32 30 30 32 32 32 32 31 30 31 31 31 30 29 28 27 26 25 24 23 22 21 21 20 20 20 20
44 43 43 41 40 39 39 37 36 35 34 33 33 33 33 33 31 30 31 32 32 32 32 31 32 32 32 32 30 29 28 28 27 26 25 23 22 21 20 20 19 20
44 43 43 41 41 40 40 38 36 35 35 35 34 34 33 33 32 31 31 31 31 32 32 32 33 33 33 32 30 29 28 28 29 28 26 25 24 24 23 21 21 20
44 43 43 43 43 42 41 40 38 36 36 36 35 35 33 33 34 33 32 31 31 31 31 31 32 33 33 31 30 29 28 28 29 29 28 27 26 25 25 24 23 22
44 44 44 44 43 43 42 42 41 38 37 37 37 36 34 34 34 35 34 32 31 31 31 30 31 32 32 31 30 28 28 28 28 29 29 29 28 27 27 25 25 24
44 45 45 44 44 44 43 43 43 41 39 39 38 37 35 35 35 36 36 34 32 31 31 30 30 30 32 31 30 29 28 28 28 29 29 30 30 29 28 27 26 25
44 45 45 45 45 44 44 44 44 44 42 40 39 38 37 36 35 35 36 37 35 32 31 31 29 29 30 31 30 29 28 28 28 29 29 30 30 30 29 28 27 26
44 45 45 45 45 44 45 45 45 45 44 42 40 39 39 38 37 35 36 37 37 34 32 31 30 29 29 29 29 29 28 28 29 29 30 30 29 29 28 28 28 27
44 45 45 45 45 45 45 45 45 46 46 43 40 38 39 39 38 37 36 36 38 37 34 31 30 29 29 29 29 28 27 28 28 29 31 32 30 28 27 27 28 28
45 45 46 45 46 46 46 46 46 46 46 44 41 38 36 38 39 39 37 36 36 37 37 34 32 30 30 30 30 29 28 27 28 28 30 33 34 33 31 29 29 29
46 46 46 46 47 47 47 47 46 46 46 45 44 39 35 35 37 38 37 35 34 35 37 37 35 33 32 32 31 31 30 29 28 29 30 32 33 35 35 34 34 33
46 46 46 47 47 47 47 46 46 46 45 44 44 41 35 33 33 34 35 34 34 34 35 36 36 36 35 35 35 34 33 32 31 31 31 31 31 32 33 34 36 37
45 45 45 46 46 46 45 45 44 44 44 44 45 44 38 33 31 31 31 31 31 32 33 34 35 36 36 37 37 37 36 35 34 34 33 33 32 31 31 32 33 35
Wind_Direction
216 217 217 217 217 217 219 224 227 229 229 231 235 236 233 231 223 217 226 237 232 222 223 228 230 229 231 232 226 221 228 232 230 237 239 225 223 213 216 234 226 210
216 217 217 217 218 218 219 223 228 231 232 232 233 236 237 237 231 219 220 232 240 232 222 227 233 231 231 233 230 227 231 232 227 237 247 237 228 226 225 236 248 245
215 217 218 218 218 218 218 221 226 230 232 232 231 232 233 236 236 227 220 226 238 241 232 229 233 233 231 231 231 229 230 233 229 232 245 244 234 234 231 230 240 255
215 216 219 219 218 218 218 218 222 226 228 230 230 227 224 226 233 232 224 222 230 239 241 236 232 232 233 230 230 231 230 234 234 232 241 245 241 241 238 232 225 232
217 217 219 219 217 217 217 216 218 222 224 227 230 229 222 218 224 232 229 223 225 231 236 240 238 234 234 233 231 232 232 233 234 233 237 242 242 243 243 242 234 225
218 218 218 218 215 213 215 216 216 219 223 225 228 230 227 219 217 225 230 227 227 227 228 236 241 238 236 236 234 234 234 234 236 238 238 237 240 244 246 246 245 241
218 218 217 215 212 210 213 215 215 217 222 226 225 226 227 223 217 219 226 229 230 228 226 230 239 241 239 238 236 234 234 234 233 237 241 238 236 240 244 243 244 248
218 219 216 213 211 210 212 215 216 217 220 223 222 221 223 223 220 218 221 226 229 229 227 226 232 240 240 238 239 236 234 235 231 231 241 245 239 238 240 239 241 248
216 218 217 214 213 213 214 216 218 218 219 220 218 217 219 220 221 220 220 222 225 228 227 223 225 234 238 237 241 241 238 237 234 233 239 245 245 244 245 244 243 247
213 215 217 216 215 215 215 217 219 220 220 220 217 214 215 218 219 222 223 223 222 223 225 223 222 228 234 234 236 242 244 241 239 238 240 245 249 248 247 248 248 248
213 213 216 217 215 215 217 215 215 218 220 220 217 214 214 216 217 220 223 224 223 221 222 224 224 225 230 232 231 236 244 246 244 242 242 246 251 251 249 249 250 251
213 213 215 218 216 215 217 216 212 212 216 219 218 214 211 213 216 218 220 224 227 226 223 225 226 226 228 232 232 232 239 245 246 246 246 248 251 254 255 253 250 250
213 214 214 216 216 213 213 214 209 206 210 216 216 213 209 209 213 217 220 223 227 229 227 227 228 228 230 233 234 233 237 242 244 246 248 250 251 254 256 256 253 251
211 212 212 213 213 210 208 208 207 205 207 211 213 212 209 207 210 216 219 221 225 229 229 229 231 231 232 235 235 235 236 239 242 244 246 250 253 254 255 256 252 250
206 207 208 209 210 209 206 205 206 205 205 209 212 212 210 207 208 213 218 219 222 227 229 229 230 232 233 235 237 235 234 236 240 243 244 247 252 255 257 256 251 244
203 204 206 207 208 209 206 204 205 205 204 207 212 213 210 208 206 210 217 220 221 226 229 228 229 233 236 236 238 237 235 234 239 243 245 246 248 252 254 255 253 248
203 203 203 205 207 209 207 203 203 205 205 205 210 214 212 209 206 207 213 219 221 226 231 231 230 233 237 238 237 237 236 235 238 243 246 248 248 249 252 254 253 252
204 203 203 204 205 208 208 205 202 203 205 205 208 213 214 211 208 207 209 215 219 224 229 234 235 234 237 239 238 237 236 236 237 240 244 248 249 250 252 256 255 252
204 203 203 204 205 207 208 206 203 202 204 206 207 212 214 213 211 209 209 211 217 220 224 230 235 236 236 239 240 239 237 236 237 239 241 244 249 252 254 256 258 258
205 204 204 205 206 207 207 207 205 203 204 206 207 210 213 214 214 213 211 211 214 219 223 227 231 234 236 238 240 240 239 238 238 239 241 242 246 251 254 255 257 259
206 205 205 205 206 206 207 208 207 205 204 205 206 208 212 215 216 215 215 214 214 217 223 227 227 230 234 238 240 241 240 239 239 238 239 240 242 246 250 254 256 258
206 206 206 206 206 206 208 209 209 207 205 205 205 207 211 215 216 216 217 218 217 217 220 224 225 227 231 236 242 244 243 240 239 238 237 237 237 238 241 247 252 256
208 207 207 206 206 207 208 209 210 208 207 205 205 206 208 212 216 217 218 219 220 220 220 222 224 226 229 234 240 244 244 241 240 239 238 237 236 234 234 236 241 247
208 208 208 207 207 207 209 210 210 209 208 207 206 206 206 209 214 217 218 219 221 223 225 226 226 228 230 233 237 241 242 242 243 241 241 241 240 239 238 237 240 244
208 209 209 208 208 208 209 209 210 210 209 208 208 208 207 208 213 216 218 219 222 224 228 231 231 231 233 236 238 240 241 242 244 245 247 248 249 249 248 246 246 248
208 209 209 209 209 208 207 208 210 210 210 210 211 211 210 210 213 215 216 218 221 224 228 233 236 237 238 241 243 244 244 244 245 247 251 254 256 257 258 257 255 253